Wind_Speed
31 31 32 32 33 33 32 31 29 27 27 26 26 26 25 24 23 23 22 21 21 20 20 19 19 19 19 19 18 18 17 17 16 16 15 15 15 14 14 14 14 14 13 13 13 14 13 13 13
31 32 33 33 34 34 32 32 30 29 28 28 28 27 26 26 25 24 23 23 22 22 22 21 21 21 20 20 20 20 19 19 18 18 17 17 17 16 16 16 16 16 16 16 15 16 15 15 15
32 32 33 34 34 33 32 32 31 30 30 29 29 29 28 27 27 26 25 24 24 24 23 23 22 22 21 21 21 21 21 20 20 19 19 19 18 18 18 18 18 18 18 18 18 18 17 17 17
32 33 34 34 33 33 33 33 33 32 32 31 30 30 29 28 28 28 27 26 26 25 25 25 24 24 23 22 22 22 22 22 22 21 21 20 20 20 20 20 20 21 21 21 20 20 19 19 19
33 34 35 35 33 32 33 33 33 33 33 32 32 31 30 30 30 29 28 28 27 27 27 26 26 26 25 25 24 24 24 24 24 23 23 22 22 22 22 22 22 22 23 23 23 22 22 22 21
33 35 35 34 33 32 33 33 34 33 33 33 33 33 31 31 31 30 29 28 28 28 28 28 28 28 28 27 26 26 25 25 25 25 25 25 24 24 24 24 24 24 25 24 24 24 24 24 23
32 34 35 34 33 33 33 34 34 34 34 34 34 34 33 32 32 31 31 30 30 30 30 30 29 30 30 30 29 29 28 27 27 27 27 27 27 26 26 26 26 26 26 26 26 26 26 25 25
32 33 33 33 33 33 33 34 35 35 35 35 36 35 34 34 34 33 33 32 32 31 31 31 31 31 31 31 31 31 30 30 30 29 29 29 29 29 29 28 27 27 27 27 27 28 28 28 28
32 32 32 32 32 33 34 35 35 36 36 36 36 36 36 36 36 36 35 35 34 34 33 33 33 33 33 33 33 33 32 32 32 31 31 31 31 30 30 29 29 29 29 29 29 29 29 30 30
31 32 32 33 33 34 35 35 36 37 38 38 38 38 37 38 38 38 37 37 36 36 35 35 35 35 35 35 35 35 34 34 34 33 33 32 32 32 32 32 31 31 31 31 31 31 31 32 32
31 32 32 34 34 34 35 36 37 38 38 38 38 39 39 39 40 40 40 39 39 38 37 37 37 37 37 37 37 36 36 36 36 35 35 34 33 33 33 33 33 33 33 33 34 34 34 34 34
31 31 32 33 34 35 36 37 37 38 38 39 39 40 41 41 41 41 42 42 41 40 40 40 39 39 39 39 38 38 38 38 38 37 37 36 36 35 35 35 35 35 35 35 36 36 36 36 36
30 30 31 33 34 34 35 36 37 38 39 40 41 41 41 42 43 43 43 43 43 42 42 41 41 40 40 40 40 40 40 40 40 39 39 39 38 38 38 38 38 37 37 37 38 38 38 38 38
29 29 30 31 32 32 34 35 37 37 39 40 41 42 42 43 43 44 44 44 44 43 43 43 42 42 42 42 42 42 42 42 42 42 41 41 41 41 41 41 40 40 40 40 40 40 40 40 40
29 30 30 31 33 33 34 34 35 36 38 39 40 41 41 42 43 43 44 45 45 45 45 44 44 43 43 43 43 43 43 43 44 44 43 43 43 43 43 43 43 43 42 42 42 42 43 42 42
29 30 31 31 33 33 34 33 33 35 36 36 37 39 40 41 41 42 43 44 45 45 45 45 45 44 44 45 45 45 46 46 46 45 45 45 45 45 45 45 44 44 44 44 44 44 45 45 44
29 30 31 31 33 33 34 32 32 34 35 35 36 37 39 40 41 41 42 43 44 45 44 44 45 45 45 46 46 47 47 47 47 47 46 46 46 46 46 46 45 45 45 45 46 46 46 46 46
28 30 31 31 32 33 33 32 32 34 35 35 36 36 37 39 40 40 41 42 43 44 44 44 45 45 45 46 47 47 47 47 48 47 47 46 46 46 47 47 46 46 46 47 47 47 47 48 48
28 29 30 30 31 32 32 31 32 33 35 36 36 37 37 38 39 39 40 41 42 42 43 43 43 43 44 46 46 46 46 47 47 47 47 46 46 46 47 47 47 47 48 48 49 49 48 49 49
28 29 29 29 30 31 32 31 31 33 34 35 36 36 37 38 38 39 39 40 41 41 42 42 43 43 44 45 45 45 45 46 46 46 46 47 47 47 47 47 48 49 49 49 50 49 49 49 49
28 29 29 30 31 32 32 30 30 31 32 33 34 36 36 37 38 38 39 40 40 40 41 42 43 43 44 45 45 45 45 46 46 46 47 48 48 48 48 48 48 49 49 49 49 50 50 50 50
27 27 28 29 30 31 31 32 28 29 30 31 33 34 36 36 37 39 39 39 40 40 41 41 42 43 44 45 45 45 45 45 46 46 47 48 48 48 49 49 49 49 49 49 49 50 50 51 51
27 28 28 28 29 30 30 32 29 29 29 30 31 33 34 35 36 37 39 39 39 40 40 41 42 42 43 44 44 44 45 46 46 47 46 47 47 48 48 49 49 49 49 49 50 50 50 50 50
27 28 29 29 30 30 28 31 29 28 28 28 30 31 32 33 34 36 37 38 39 39 39 40 41 42 42 43 43 44 45 45 46 46 46 46 46 47 47 48 49 49 49 50 49 49 49 49 49
27 28 29 30 30 29 28 29 28 27 27 27 28 29 30 33 34 35 35 36 37 38 38 39 40 41 42 43 43 43 43 44 45 45 45 45 45 46 47 48 49 49 50 49 49 48 49 49 49
27 27 28 30 30 29 28 28 27 27 26 27 27 28 30 32 33 34 35 36 36 37 38 38 40 40 41 42 42 42 42 42 43 44 44 45 46 46 47 47 47 48 48 48 48 48 48 48 48
27 26 27 29 30 29 28 28 27 27 28 28 28 28 29 31 33 34 35 36 37 37 37 38 39 40 40 41 41 41 41 41 42 43 44 45 45 45 46 46 46 47 47 47 47 48 48 47 47
28 27 28 28 30 30 29 28 27 26 27 27 28 29 30 31 32 32 34 35 36 36 37 37 38 39 39 40 40 40 41 41 41 42 43 44 44 44 44 44 44 45 46 46 47 47 47 46 45
28 28 29 29 30 31 30 27 27 26 26 27 27 28 29 29 30 31 32 33 34 35 36 37 37 37 38 38 39 39 40 40 40 40 41 42 43 43 43 43 43 43 43 44 45 45 45 45 45
29 29 29 30 30 30 31 28 27 27 27 26 27 27 27 28 29 30 31 32 33 34 35 35 36 36 36 37 38 38 39 39 40 40 40 41 41 42 42 42 42 42 42 42 43 44 44 44 44
Wind_Direction
250 250 249 248 248 247 247 248 247 246 246 247 246 246 247 249 250 251 251 250 251 250 249 249 250 250 251 251 252 253 254 255 256 256 256 256 256 257 259 259 260 261 262 263 264 263 263 263 264
251 251 251 250 248 248 248 248 247 247 247 247 247 247 247 249 250 252 251 250 251 251 249 249 250 250 251 252 252 253 254 255 256 257 258 257 257 259 259 260 260 261 262 263 264 265 267 264 262
251 251 251 251 250 250 249 248 248 248 247 247 248 248 248 250 251 252 252 251 251 252 251 250 251 251 252 253 252 254 254 255 256 257 259 258 259 259 260 261 262 261 262 263 264 265 266 264 263
252 251 251 251 251 250 249 248 248 247 247 247 248 248 249 250 252 253 253 253 252 252 252 252 252 253 253 254 254 254 254 255 256 257 259 260 260 261 261 263 264 263 263 263 264 264 264 262 262
252 251 251 252 252 251 249 249 248 248 248 248 248 248 249 250 251 252 253 253 252 251 251 252 252 253 254 255 255 256 256 256 256 257 258 260 261 262 263 263 264 265 265 264 264 263 263 261 261
254 252 252 253 252 251 251 250 249 248 248 248 248 248 248 249 250 251 252 253 252 251 251 251 252 253 255 256 256 256 256 256 258 258 258 259 261 263 263 264 265 265 266 265 264 263 262 262 262
255 253 254 253 252 251 250 250 249 248 248 248 249 249 248 249 250 251 251 252 252 252 251 252 253 253 254 255 256 257 257 257 258 258 259 260 261 263 262 263 265 265 265 264 263 263 264 264 264
255 254 254 253 252 251 251 250 249 248 248 248 249 249 249 250 250 250 251 252 253 253 253 253 253 254 255 255 256 256 257 258 258 259 259 260 261 262 262 263 265 265 265 264 262 262 264 264 265
255 254 254 254 255 254 253 251 249 248 248 248 248 249 249 250 250 250 251 252 253 253 254 254 255 255 256 256 256 256 256 257 258 258 259 259 260 261 262 263 264 265 265 264 263 263 265 266 266
256 255 254 254 254 255 254 252 250 248 248 248 248 248 249 249 250 250 251 252 253 254 254 254 255 255 256 256 256 256 256 257 258 259 259 258 259 260 261 262 263 264 265 265 264 264 265 265 266
257 257 256 256 256 256 254 253 252 250 249 249 249 249 249 250 250 250 251 252 253 254 254 255 255 256 256 256 256 256 256 257 257 258 259 259 260 261 262 263 264 264 265 265 263 264 264 264 265
259 259 258 257 257 256 256 255 254 252 251 250 250 250 250 250 250 251 252 252 253 254 255 255 256 256 256 256 256 257 257 257 257 258 259 259 261 262 262 263 263 264 264 264 264 263 264 264 265
262 262 260 258 257 258 258 257 257 255 253 251 250 250 251 251 251 252 252 253 254 254 254 255 255 255 256 256 256 257 257 257 258 258 258 259 260 261 263 263 263 264 264 264 263 263 264 265 265
263 263 263 260 258 258 259 259 259 257 255 253 252 252 251 251 252 252 253 253 254 254 255 254 255 255 256 256 256 256 256 257 258 259 259 259 260 261 263 265 265 265 265 264 263 263 264 265 265
264 264 264 263 260 259 261 260 259 258 257 256 255 254 253 252 253 253 254 254 254 254 254 255 255 255 255 256 257 257 257 258 258 259 259 260 261 262 264 265 265 265 264 264 264 264 264 264 265
267 266 266 265 263 261 263 262 260 259 258 257 257 256 255 254 254 254 255 256 255 255 255 255 255 255 256 256 256 257 258 259 259 260 260 260 261 263 264 264 265 265 265 264 264 265 265 265 265
269 269 269 267 266 264 265 264 261 260 258 257 258 258 257 256 256 256 255 256 256 257 256 256 256 257 257 257 257 258 258 259 259 260 260 260 261 263 264 265 264 264 265 264 264 265 265 265 265
272 272 271 269 267 267 268 267 264 261 259 258 258 258 258 258 257 257 257 257 257 257 257 257 256 257 258 258 258 258 259 259 259 260 260 261 262 263 263 264 264 264 264 265 265 265 265 266 266
274 274 273 271 269 269 269 269 266 263 260 259 258 258 258 258 258 257 257 257 258 258 258 258 257 258 258 258 259 259 259 260 260 260 261 262 262 263 263 263 264 265 265 265 265 265 265 266 266
277 276 274 272 273 272 271 270 267 265 263 261 260 259 259 259 258 258 258 258 258 259 258 257 258 259 259 259 259 260 260 261 261 261 262 262 263 263 263 263 265 265 265 265 265 264 264 265 265
279 279 277 277 276 275 274 271 269 267 265 263 261 260 260 260 260 259 260 260 259 259 259 258 258 259 260 260 260 259 259 261 261 261 262 262 262 263 263 264 265 265 265 265 264 264 264 264 265
278 280 281 280 278 277 276 275 270 268 267 265 263 262 261 261 261 260 260 260 259 259 258 259 260 260 260 260 259 260 260 261 262 263 263 264 264 264 264 264 264 265 265 264 264 265 265 265 265
281 279 279 280 280 278 278 278 274 270 268 266 265 264 263 263 263 262 260 260 260 260 259 260 260 260 260 260 260 260 260 261 263 263 264 264 265 265 264 264 264 266 265 265 264 264 265 265 265
283 281 280 280 280 279 279 278 277 275 272 269 267 265 265 264 263 263 262 261 261 262 261 260 260 259 260 260 261 260 261 262 263 263 264 264 265 265 264 264 265 265 265 265 265 265 265 265 266
286 284 282 282 281 280 279 278 279 278 275 271 267 266 266 265 265 264 264 263 263 263 263 263 262 260 260 261 261 262 262 263 263 263 264 264 265 266 266 265 265 265 265 265 265 265 266 265 266
286 286 284 284 284 283 280 279 279 278 276 273 270 267 266 265 265 266 265 265 265 264 264 264 264 263 262 262 262 262 263 263 264 264 264 265 266 266 266 265 266 266 265 265 265 264 265 266 266
286 285 285 284 284 285 284 282 279 278 276 274 272 270 270 269 267 268 267 266 266 265 265 265 265 265 265 265 264 264 264 264 265 266 266 266 266 266 265 265 265 265 265 265 265 265 265 265 266
284 284 283 283 284 284 285 285 284 280 278 276 275 274 272 271 271 271 270 269 267 265 265 265 266 267 268 267 266 266 266 266 267 268 268 267 268 268 267 266 266 266 266 266 265 265 265 265 265
283 281 280 281 282 283 284 285 284 283 281 279 278 277 275 272 271 272 272 271 269 267 266 266 266 268 269 269 268 267 266 267 267 269 270 270 270 269 268 267 266 266 266 265 265 265 265 264 264
283 281 280 280 281 281 282 284 284 283 283 283 283 281 278 275 274 273 274 273 271 270 269 268 268 269 269 269 269 268 267 267 268 269 270 271 270 269 267 266 265 265 265 265 264 265 265 265 264
Height
5788 5789 5790 5792 5793 5795 5797 5800 5803 5805 5807 5809 5810 5811 5812 5814 5816 5820 5820 5820 5820 5821 5823 5824 5825 5826 5828 5829 5830 5831 5832 5833 5834 5835 5836 5837 5839 5839 5840 5841 5842 5843 5844 5845 5845 5846 5846 5847 5848
5782 5783 5785 5786 5787 5789 5793 5796 5798 5800 5802 5804 5805 5806 5808 5809 5811 5813 5814 5815 5816 5818 5819 5820 5821 5823 5824 5825 5827 5828 5829 5830 5831 5832 5833 5834 5835 5836 5837 5838 5839 5840 5841 5842 5842 5843 5844 5844 5845
5776 5777 5779 5779 5781 5784 5788 5790 5793 5795 5797 5798 5800 5801 5803 5805 5806 5808 5810 5811 5812 5813 5815 5816 5817 5819 5820 5821 5823 5824 5825 5826 5828 5829 5830 5831 5832 5833 5834 5835 5836 5837 5837 5838 5839 5840 5840 5841 5842
5770 5771 5772 5774 5775 5779 5782 5784 5786 5788 5791 5793 5794 5796 5798 5800 5802 5803 5805 5806 5808 5809 5810 5812 5813 5814 5816 5817 5818 5819 5821 5822 5823 5825 5826 5827 5828 5829 5830 5831 5832 5833 5834 5834 5835 5836 5837 5838 5838
5763 5764 5766 5767 5770 5773 5776 5778 5780 5782 5784 5787 5789 5790 5793 5795 5796 5798 5799 5801 5803 5804 5806 5807 5808 5810 5811 5812 5814 5815 5816 5817 5819 5820 5821 5822 5823 5824 5825 5826 5827 5828 5829 5830 5831 5831 5832 5833 5834
5756 5757 5759 5761 5764 5767 5769 5771 5773 5776 5778 5780 5782 5785 5787 5789 5791 5792 5794 5796 5797 5799 5800 5802 5803 5804 5806 5807 5809 5810 5811 5812 5814 5815 5816 5818 5819 5819 5820 5821 5822 5823 5824 5825 5826 5827 5827 5828 5829
5750 5751 5752 5755 5758 5760 5763 5764 5767 5769 5772 5774 5776 5778 5781 5783 5785 5786 5788 5790 5791 5793 5794 5796 5797 5799 5800 5802 5803 5804 5806 5807 5808 5810 5811 5812 5813 5814 5815 5816 5817 5818 5819 5819 5820 5821 5822 5823 5824
5742 5744 5745 5748 5751 5754 5756 5757 5760 5762 5765 5768 5769 5772 5775 5777 5778 5780 5782 5783 5785 5787 5788 5790 5792 5793 5794 5796 5797 5798 5800 5801 5802 5803 5805 5806 5807 5808 5809 5810 5811 5812 5813 5814 5814 5815 5816 5817 5818
5736 5738 5739 5742 5744 5746 5748 5750 5752 5754 5757 5759 5762 5765 5767 5769 5771 5773 5775 5776 5778 5780 5782 5783 5785 5786 5788 5789 5791 5792 5793 5794 5796 5797 5798 5800 5801 5802 5803 5804 5804 5805 5806 5807 5808 5809 5810 5811 5812
5729 5731 5733 5735 5736 5738 5740 5742 5744 5747 5749 5751 5754 5757 5759 5761 5763 5765 5767 5769 5771 5773 5775 5776 5778 5779 5781 5782 5783 5785 5786 5788 5789 5790 5791 5793 5794 5795 5796 5797 5798 5798 5799 5800 5801 5802 5803 5804 5805
5722 5724 5726 5727 5728 5729 5731 5733 5735 5738 5741 5744 5746 5749 5751 5753 5755 5757 5759 5761 5763 5765 5767 5768 5770 5771 5773 5774 5776 5777 5779 5780 5781 5783 5784 5785 5787 5788 5789 5789 5790 5791 5792 5793 5794 5794 5795 5796 5797
5715 5717 5718 5719 5720 5721 5722 5724 5726 5729 5733 5735 5737 5739 5741 5744 5746 5748 5750 5753 5754 5756 5758 5760 5761 5763 5765 5766 5768 5769 5770 5772 5774 5775 5776 5778 5779 5780 5781 5782 5783 5783 5784 5785 5785 5786 5787 5788 5789
5708 5710 5710 5711 5712 5712 5713 5715 5717 5721 5723 5725 5727 5730 5732 5735 5737 5739 5741 5743 5745 5747 5749 5751 5752 5754 5756 5757 5759 5760 5762 5763 5765 5767 5768 5770 5771 5772 5773 5773 5774 5775 5775 5776 5777 5777 5778 5779 5780
5702 5702 5703 5703 5703 5704 5705 5707 5709 5712 5713 5716 5718 5720 5723 5725 5727 5730 5732 5734 5736 5738 5739 5741 5742 5744 5746 5748 5749 5751 5752 5754 5756 5757 5759 5761 5762 5763 5764 5765 5765 5766 5766 5767 5767 5768 5769 5770 5770
5695 5695 5696 5696 5696 5697 5698 5700 5702 5703 5704 5706 5708 5711 5713 5715 5718 5720 5722 5724 5726 5728 5729 5731 5732 5734 5736 5738 5739 5741 5743 5744 5746 5748 5749 5751 5752 5753 5754 5755 5756 5756 5756 5757 5757 5758 5759 5760 5760
5688 5688 5689 5690 5689 5689 5691 5693 5695 5694 5695 5697 5699 5701 5703 5706 5708 5710 5712 5714 5715 5717 5719 5720 5722 5724 5726 5727 5729 5731 5732 5734 5736 5737 5739 5740 5742 5743 5744 5745 5745 5746 5746 5747 5747 5748 5749 5749 5750
5681 5681 5682 5683 5682 5682 5682 5685 5687 5686 5687 5689 5690 5692 5694 5696 5698 5700 5702 5704 5705 5707 5708 5710 5711 5713 5715 5716 5718 5720 5721 5723 5725 5727 5728 5730 5731 5732 5733 5734 5734 5735 5735 5736 5736 5737 5738 5738 5739
5675 5674 5674 5674 5674 5674 5675 5677 5678 5678 5679 5680 5681 5683 5685 5687 5689 5690 5692 5693 5695 5697 5698 5700 5701 5703 5704 5705 5707 5708 5710 5712 5714 5715 5717 5718 5720 5721 5722 5722 5723 5723 5724 5724 5725 5725 5726 5726 5727
5667 5667 5667 5667 5667 5667 5667 5668 5669 5670 5670 5671 5673 5674 5676 5677 5679 5681 5682 5683 5685 5686 5688 5689 5690 5692 5694 5695 5696 5698 5700 5701 5703 5704 5706 5707 5708 5709 5710 5711 5711 5712 5712 5712 5712 5713 5714 5714 5714
5661 5660 5660 5660 5660 5659 5659 5661 5661 5661 5662 5663 5664 5665 5666 5668 5669 5671 5672 5673 5675 5676 5678 5679 5681 5682 5683 5684 5686 5687 5689 5690 5692 5693 5694 5695 5696 5698 5698 5699 5699 5699 5700 5700 5700 5700 5701 5702 5702
5655 5654 5653 5653 5652 5651 5651 5653 5654 5654 5654 5654 5655 5656 5657 5658 5660 5661 5663 5664 5665 5666 5667 5668 5670 5671 5672 5674 5675 5676 5678 5679 5681 5682 5683 5683 5684 5685 5686 5686 5687 5687 5687 5687 5687 5688 5689 5690 5690
5649 5648 5647 5645 5644 5644 5644 5643 5647 5646 5646 5646 5647 5647 5648 5649 5650 5651 5653 5654 5655 5656 5657 5659 5660 5661 5662 5663 5665 5666 5667 5668 5670 5671 5671 5672 5673 5673 5673 5674 5674 5675 5675 5675 5675 5675 5676 5677 5678
5642 5641 5640 5638 5637 5637 5637 5635 5639 5638 5638 5639 5639 5639 5639 5640 5641 5642 5643 5644 5645 5646 5647 5648 5649 5650 5651 5652 5654 5655 5656 5657 5658 5659 5659 5660 5660 5661 5661 5661 5661 5662 5662 5662 5662 5663 5663 5664 5665
5636 5635 5633 5631 5630 5630 5631 5628 5630 5630 5630 5631 5631 5631 5631 5631 5632 5632 5633 5635 5635 5636 5637 5637 5639 5640 5641 5641 5642 5643 5644 5645 5646 5646 5647 5648 5648 5648 5648 5648 5649 5649 5650 5650 5650 5650 5651 5652 5652
5630 5628 5626 5624 5623 5623 5623 5622 5624 5623 5623 5622 5622 5622 5622 5622 5623 5623 5624 5625 5626 5626 5627 5627 5628 5629 5630 5630 5631 5632 5633 5633 5634 5634 5635 5635 5635 5636 5636 5636 5636 5636 5637 5637 5637 5638 5639 5639 5640
5623 5622 5620 5618 5616 5616 5616 5615 5618 5617 5616 5615 5615 5614 5614 5613 5614 5614 5615 5616 5616 5617 5617 5617 5618 5618 5619 5619 5620 5620 5621 5622 5622 5622 5622 5623 5623 5623 5623 5623 5623 5624 5624 5624 5625 5626 5626 5627 5628
5617 5615 5614 5612 5609 5608 5608 5609 5610 5610 5608 5608 5607 5607 5606 5606 5605 5605 5606 5606 5606 5607 5607 5608 5608 5608 5608 5609 5609 5609 5610 5610 5610 5610 5610 5610 5611 5611 5610 5611 5611 5611 5611 5612 5612 5613 5614 5615 5615
5611 5609 5607 5605 5602 5601 5602 5602 5603 5602 5601 5601 5600 5599 5598 5598 5597 5596 5596 5596 5596 5597 5597 5597 5598 5598 5598 5598 5598 5598 5599 5599 5599 5599 5599 5598 5598 5598 5598 5598 5598 5598 5599 5599 5600 5601 5602 5602 5603
5604 5603 5600 5598 5596 5595 5594 5598 5596 5595 5594 5593 5593 5592 5591 5590 5589 5589 5588 5587 5587 5587 5587 5587 5588 5588 5588 5587 5587 5587 5587 5588 5588 5587 5587 5587 5586 5586 5585 5585 5586 5586 5586 5587 5588 5589 5590 5591 5592
5596 5595 5594 5592 5591 5589 5587 5592 5590 5588 5587 5586 5585 5584 5583 5582 5581 5580 5579 5579 5578 5578 5578 5578 5578 5578 5578 5577 5577 5576 5577 5577 5576 5576 5576 5575 5574 5573 5573 5573 5574 5574 5575 5575 5576 5577 5578 5579 5581